Flight Track Log - Related Links

Times and Time Zones

All times are in EDT time to prevent confusion due to time zone crossing. See the N711FG flight status page for this flight to view local times or setup timezone preferences in your user account.

Time Position Orientation Groundspeed Altitude Reporting Facility
EDT Latitude Longitude Course Direction KTS MPH feet Rate Location/Type
Sun 08:46:50 AM 38.0753 -85.7789 218° Southwest 318 366 4,900  Level Indianapolis Center
Sun 08:47:52 AM 38.0403 -85.8697 244° Southwest 283 326 8,000 2,780 Climbing Indianapolis Center
Sun 08:48:53 AM 38.0019 -85.9719 245° Southwest 314 361 10,600 2,016 Climbing Indianapolis Center
Sun 08:49:54 AM 37.9556 -86.0792 241° Southwest 339 390 12,100 683 Climbing Indianapolis Center
Sun 08:50:56 AM 37.8778 -86.1533 217° Southwest 358 412 12,000 -49 Descending Indianapolis Center
Sun 08:51:00 AM 37.8563 -86.2387 189° South  Level FlightAware Approximate
Sun 08:51:57 AM 37.7811 -86.1725 189° South 348 400 12,000  Level Indianapolis Center
Sun 08:52:00 AM 37.7836 -86.2664 218° Southwest  Level FlightAware Approximate
Sun 08:52:58 AM 37.6742 -86.2056 194° South 347 399 12,000  Level Indianapolis Center
Sun 08:54:00 AM 37.5783 -86.2372 195° South 352 405 12,000 -49 Level Indianapolis Center
Sun 08:55:01 AM 37.4808 -86.2672 194° South 356 410 11,900 -49 Descending Indianapolis Center
Sun 08:56:02 AM 37.3839 -86.2958 193° South 354 407 11,900  Level Indianapolis Center
Sun 08:57:04 AM 37.2853 -86.3275 194° South 360 414 11,900 -146 Level Indianapolis Center
Sun 08:58:05 AM 37.1889 -86.3558 193° South 353 406 11,600 -435 Descending Indianapolis Center
Sun 08:59:08 AM 37.0933 -86.3858 194° South 349 402 11,000 -293 Descending Memphis Center
Sun 09:00:08 AM 37.0047 -86.4136 194° South 349 402 11,000 -250 Level Memphis Center
Sun 09:01:08 AM 36.9097 -86.4442 194° South 349 402 10,500 -750 Descending Memphis Center
Sun 09:02:08 AM 36.8231 -86.4692 193° South 338 389 9,500 -950 Descending Memphis Center
Sun 09:03:08 AM 36.7322 -86.4994 195° South 320 368 8,600 -1,300 Descending Memphis Center
Sun 09:04:08 AM 36.6578 -86.5186 192° South 291 335 6,900 -1,600 Descending Memphis Center
Sun 09:05:08 AM 36.5814 -86.5378 191° South 285 328 5,400 -900 Descending Memphis Center
Sun 09:06:08 AM 36.5106 -86.5411 182° South 268 308 5,100 -150 Descending Memphis Center
Sun 09:07:08 AM 36.4378 -86.5444 182° South 268 308 5,100  Level Memphis Center
Sun 09:08:08 AM 36.3628 -86.5481 182° South 268 308 5,100  Level Memphis Center
Sun 09:09:08 AM 36.2878 -86.5489 181° South 268 308 5,100  Level Memphis Center
Sun 09:10:08 AM 36.2211 -86.5494 180° South 273 314 5,100  Level Memphis Center
Sun 09:11:08 AM 36.1464 -86.5606 187° South 273 314 5,100 -400 Level Memphis Center
Sun 09:12:08 AM 36.0742 -86.5872 197° South 273 314 4,300 -1,050 Descending Memphis Center
Sun 09:13:08 AM 36.0039 -86.6133 197° South 278 320 3,000 -900 Descending Memphis Center
Sun 09:14:08 AM 35.9319 -86.6425 198° South 263 303 2,500 -200 Descending Memphis Center
Sun 09:15:08 AM 35.9319 -86.7117 270° West 185 213 2,600 -207 Climbing Memphis Center
Sun 09:17:31 AM 36.0500 -86.7167 358° North 151 174 1,800 -473 Descending Nashville TRACON
Sun 09:18:31 AM 36.0833 -86.7000 22° Northeast 141 162 1,000 -800 Descending Nashville TRACON
Sun 09:20:00 AM 36.1167 -86.6667 14° North  Level FlightAware Approximate
Sun 09:27:00 AM 36.1245 -86.6782 14° North  Level Estimated
Sun 09:28:00 AM 36.1245 -86.6782 14° North  Level Estimated
Sun 09:29:00 AM 36.1245 -86.6782 14° North  Level Estimated
Sun 09:30:00 AM 36.1245 -86.6782 14° North  Level Estimated
Sun 09:31:00 AM 36.1245 -86.6782 14° North  Level Estimated
Sun 09:32:00 AM 36.1245 -86.6782 14° North  Level Estimated

Login

Don't have an account? Register now (free) for customized features, flight alerts, and more!